This demonstration page uses our WeatherBlox Daily Observations layout. Learn more.

Left ArrowRight Arrow

Hourly Observations for August 11, 2015

Temp ( °F °C ) Dew Point ( °F °C ) Humidity (%) Winds ( mph kmh ) Pressure ( in mb ) Visibility ( mi km ) Precip ( " mm )
12:53 am 00:53 Clear with Mist and Fog 71 21.7 70 21.1 96 96 N N/A 29.85 1011 6 10 N/A
1:48 am 01:48 Clear with Mist and Fog 70 21 70 21 100 100 N N/A 29.85 1011 2 3 N/A
1:53 am 01:53 Clear with Mist and Fog 70 21.1 69 20.6 97 97 N N/A 29.85 1011 1 2 N/A
2:06 am 02:06 Clear with Mist and Fog 70 21.1 69 20.6 97 97 N N/A 29.88 1012 2 3 N/A
2:14 am 02:14 Clear with Mist and Fog 70 21.1 69 20.6 97 97 N N/A 29.88 1012 4 6 N/A
2:33 am 02:33 Clear with Mist and Fog 69 20.6 68 20 96 96 N N/A 29.88 1012 2 2 N/A
2:42 am 02:42 Mostly Cloudy with Mist and Fog 69 20.6 68 20 96 96 N N/A 29.88 1012 1 1 N/A
2:53 am 02:53 Mostly Cloudy with Fog 69 20.6 68 20 96 96 N N/A 29.85 1011 0 0 N/A
3:01 am 03:01 Mostly Cloudy with Fog 68 20 68 20 100 100 N N/A 29.88 1012 1 1 N/A
3:07 am 03:07 Mostly Cloudy with Mist and Fog 68 20 68 20 100 100 N N/A 29.88 1012 2 3 N/A
3:16 am 03:16 Partly Cloudy with Mist and Fog 69 20.6 68 20 96 96 NW 3 6 29.88 1012 4 6 N/A
3:53 am 03:53 Clear with Mist and Fog 68 20 67 19.4 96 96 N N/A 29.87 1012 4 6 N/A
4:53 am 04:53 Mostly Clear with Mist and Fog 70 21.1 68 20 93 93 NNW 5 7 29.88 1012 6 10 N/A
5:53 am 05:53 Partly Cloudy with Mist and Fog 68 20 67 19.4 96 96 N N/A 29.89 1012 4 6 N/A
6:45 am 06:45 Clear with Mist and Fog 67 19.4 66 18.9 97 97 N N/A 29.91 1013 2 3 N/A
6:50 am 06:50 Sunny with Mist and Fog 66 19 66 19 100 100 N N/A 29.94 1014 2 2 N/A
6:53 am 06:53 Sunny with Mist and Fog 67 19.4 66 18.9 97 97 N N/A 29.91 1013 1 2 N/A
7:08 am 07:08 Sunny with Mist and Fog 68 20 67 19.4 96 96 N N/A 29.94 1014 2 3 N/A
7:39 am 07:39 Mostly Cloudy with Mist and Fog 69 20.6 68 20 96 96 N N/A 29.94 1014 3 5 N/A
7:53 am 07:53 Partly Cloudy with Mist and Fog 70 21.1 68 20 93 93 N N/A 29.94 1014 3 5 N/A
8:20 am 08:20 Partly Cloudy with Mist and Fog 71 21.7 68 20 90 90 WNW 3 6 29.94 1014 5 8 N/A
8:45 am 08:45 Mostly Cloudy with Mist and Fog 72 22.2 68 20 87 87 NW 5 7 29.97 1015 5 8 N/A
8:53 am 08:53 Mostly Cloudy with Mist and Fog 72 22.2 68 20 87 87 NW 3 6 29.95 1014 5 8 N/A
9:53 am 09:53 Cloudy with Mist and Fog 71 21.7 68 20 90 90 NNW 8 13 29.98 1015 4 6 N/A
10:37 am 10:37 Cloudy with Mist and Fog 72 22.2 68 20 87 87 NNW 6 9 30.00 1016 4 6 N/A
10:53 am 10:53 Cloudy with Mist and Fog 72 22.2 68 20 87 87 N 3 6 29.99 1016 4 6 N/A
11:43 am 11:43 Cloudy with Haze 73 22.8 67 19.4 81 81 N 7 11 30.03 1017 6 10 N/A
11:53 am 11:53 Cloudy with Haze 74 23.3 68 20 82 82 N 6 9 30.00 1016 6 10 N/A
12:53 pm 12:53 Mostly Cloudy 75 23.9 68 20 79 79 NNW 6 9 30.00 1016 7 11 N/A
1:01 pm 13:01 Mostly Cloudy 77 25 69 20.6 77 77 VRB 5 7 30.00 1016 8 13 N/A
1:37 pm 13:37 Mostly Cloudy 78 25.6 68 20 71 71 NW 3 6 30.00 1016 10 16 N/A
1:45 pm 13:45 Partly Cloudy 79 26.1 68 20 69 69 WNW 8 13 30.00 1016 10 16 N/A
1:53 pm 13:53 Partly Cloudy 78 25.6 67 19.4 69 69 NW 7 11 29.99 1016 10 16 N/A
2:53 pm 14:53 Mostly Cloudy 80 26.7 65 18.3 60 60 N 9 15 29.99 1016 10 16 N/A
3:53 pm 15:53 Partly Cloudy 82 27.8 65 18.3 56 56 N 8 13 29.98 1015 10 16 N/A
4:53 pm 16:53 Sunny 83 28.3 64 17.8 53 53 WNW 8 13 29.97 1015 10 16 N/A
5:53 pm 17:53 Sunny 81 27.2 63 17.2 54 54 N 8 13 29.98 1015 10 16 N/A
6:53 pm 18:53 Partly Cloudy 81 27.2 62 16.7 53 53 NNW 10 17 29.98 1015 10 16 N/A
7:53 pm 19:53 Mostly Sunny 78 25.6 62 16.7 58 58 NNW 8 13 29.98 1015 10 16 N/A
8:53 pm 20:53 Clear 70 21.1 64 17.8 82 82 NW 3 6 29.99 1016 10 16 N/A
9:53 pm 21:53 Clear 66 18.9 63 17.2 90 90 N N/A 30.01 1016 10 16 N/A
10:53 pm 22:53 Clear 66 18.9 63 17.2 90 90 NNW 6 9 30.02 1017 10 16 N/A
11:53 pm 23:53 Clear 67 19.4 62 16.7 84 84 NNW 5 7 30.04 1017 10 16 N/A

Powered by AerisWeather